Hauptseite
METAR-TAF:

METAR-TAF

Flughäfen :

P11-b, Niederlande

Bohrplattform

Breite: 52-21-36N, Länge: 3-20-30E, Höhe: 24 m

Beobachtung

Neuester Wetterbericht von vor 26 Minuten, um 06:25 UTC
Wind 14 kt aus Ost/Südost
Temperatur 12°C
Luftfeuchtigkeit 82%
Luftdruck 1011 hPa
Sichtweite 10 km oder mehr

METAR: EHPG 220625Z AUTO 12014KT 9999 NSC 12/09 Q1011 W///H///

Zeit: 08:51 (06:51 UTC)


TAF: fehlend

Wetterbeobachtungen und Prognosen von mehr als 4000 Flughäfen (METAR und TAF Bericht).

Die verfügbaren Stationen werden durch gelbe und rote Markierungen auf der Karte dargestellt.

Führen Sie die Maus auf sie, um den Namen der Station zu sehen.

Darauf klicken, um die Beobachtung von Wetterbeobachtungen und Prognosen zu sehen.

Um die Karte zu ändern : klicken Sie auf den grünen Tasten mit einem schwarzen Kreuz Zum Vergrößern, auf den grünen Button mit einem Gedankenstrich zu verkleinern, oder auf die grünen Pfeile für benachbarte Karten.


METAR-TAF: